Theta_e
334 334 333 333 331 330 328 328 326 324 324 323 322 321 320 319 318 318 317 315 314 313 312 311 311 310 309 309 308 307 307 307 308 307 307 306 306 305 305 304 304 303 303 302 302 301 301 300 300 301 301 300 300 300 299 299 300 300 300 297 298 298 298 296 294 295 295 298 300 300 301 300 300 298 298 298 298 299 301 298 299 299 300 300 301
334 333 332 332 330 328 327 326 325 323 322 322 320 320 319 318 318 318 316 315 314 313 312 312 310 309 308 307 307 307 307 307 307 306 306 305 305 306 304 303 302 301 301 301 302 303 300 300 300 300 300 299 299 301 299 297 298 298 298 298 297 299 299 298 296 295 293 296 297 299 299 299 297 298 297 297 297 299 297 298 299 299 300 300 300
334 333 331 330 328 327 327 326 325 323 321 320 319 319 318 318 318 316 315 315 315 314 312 311 309 308 307 307 306 306 307 306 306 305 305 304 304 304 303 302 302 301 301 301 301 301 301 301 300 302 303 299 299 299 300 298 298 298 297 299 298 298 299 299 297 294 294 295 296 297 297 298 296 297 298 298 298 297 296 297 297 299 301 300 300
333 332 330 329 328 327 326 325 324 322 320 319 318 318 318 318 318 316 316 315 314 313 312 310 308 307 306 306 306 306 306 306 305 305 305 304 303 303 303 302 302 301 301 301 302 301 300 299 300 301 301 300 299 299 299 298 297 297 297 297 298 298 299 298 298 296 295 294 295 297 299 296 296 297 298 298 297 296 296 296 297 298 298 300 299
332 331 329 328 327 326 325 325 323 322 320 319 318 317 317 317 318 317 316 315 314 312 311 309 307 306 306 305 305 305 306 305 305 304 304 304 304 303 303 302 301 301 301 302 307 301 301 300 301 301 299 298 297 297 299 298 297 297 296 297 297 298 299 298 297 296 295 293 295 296 297 297 297 296 297 296 295 295 295 295 296 297 297 298 300
331 330 328 326 325 325 324 324 322 321 319 318 317 317 317 317 318 317 316 314 312 311 309 308 307 306 306 305 305 305 306 305 305 304 304 304 303 303 303 302 302 302 302 302 302 301 301 301 300 299 298 296 295 295 297 298 297 296 295 295 296 296 296 295 296 295 294 293 294 295 295 296 294 294 296 296 294 293 294 295 296 296 296 296 298
330 328 327 326 325 324 324 323 321 319 318 317 317 317 317 318 317 316 315 313 311 310 309 307 307 306 305 305 305 305 305 305 304 304 304 303 303 303 303 302 302 302 301 302 302 301 300 299 298 297 297 296 295 294 295 296 298 294 296 295 295 294 294 294 294 293 293 293 294 293 294 295 293 292 295 296 294 294 292 292 293 295 295 295 296
328 327 326 325 324 324 324 321 319 318 317 317 317 317 318 319 318 316 314 312 311 310 308 307 306 305 305 305 305 305 304 303 304 303 303 303 304 303 302 302 302 302 302 302 301 299 297 297 296 296 296 295 294 293 294 295 295 293 293 294 294 292 292 293 292 292 291 292 292 292 292 292 292 293 295 293 291 292 294 293 292 292 293 295 296
327 326 326 324 324 323 322 320 318 317 316 316 316 317 318 319 317 314 313 312 312 309 308 307 305 304 304 304 304 304 304 304 304 303 303 303 303 302 302 302 302 302 302 301 299 298 296 295 294 295 301 300 301 301 302 302 295 291 292 292 294 291 290 290 291 290 290 291 291 293 291 291 291 291 291 290 290 290 292 293 292 293 293 294 296
327 326 325 324 324 323 321 319 317 316 316 316 317 317 318 318 316 314 313 312 310 309 307 306 305 304 303 303 303 304 304 305 308 307 306 304 303 303 303 302 302 302 302 301 298 296 295 296 301 302 301 301 300 297 296 298 302 298 293 291 291 291 290 289 289 290 291 289 290 290 291 290 289 291 291 291 292 293 292 292 291 292 292 292 294
326 325 324 324 323 322 319 318 317 316 316 316 317 317 317 316 315 314 312 311 309 308 306 305 303 303 303 303 302 304 305 306 302 298 300 303 304 302 302 302 302 303 303 299 296 296 296 297 298 301 302 302 299 297 295 295 294 295 296 298 300 294 290 288 288 290 291 290 290 290 289 289 291 292 291 292 293 292 292 292 291 291 290 289 289
325 324 323 323 322 320 318 317 316 316 316 316 316 317 316 315 314 312 311 310 308 307 305 304 303 303 303 303 303 303 302 304 297 298 298 299 303 303 302 302 303 302 301 299 297 296 295 297 298 300 297 297 297 296 297 297 294 294 294 294 293 293 297 293 292 289 289 288 289 289 289 290 291 292 292 292 292 293 293 292 292 290 290 289 290
325 323 323 322 321 319 317 316 315 315 315 315 316 315 315 314 313 312 311 310 308 306 304 304 302 303 303 302 301 300 298 297 296 297 298 298 299 302 302 301 301 302 302 300 297 295 295 297 298 299 301 306 305 297 293 294 298 297 296 296 296 294 291 290 293 294 291 290 289 290 290 290 291 293 294 294 294 293 293 293 292 292 291 290 291
323 322 322 321 319 318 316 316 315 314 315 315 315 314 314 313 313 312 311 310 308 306 305 304 303 302 302 301 299 298 297 297 296 297 297 297 297 299 301 301 301 302 303 301 299 297 296 297 298 299 296 299 296 296 296 295 296 296 294 293 292 296 296 294 292 292 294 292 290 290 293 294 294 295 297 296 295 294 293 293 293 292 292 292 294
322 322 321 320 318 317 316 315 314 314 314 314 314 314 313 313 312 311 311 310 308 307 306 304 303 302 302 300 298 298 299 295 295 295 296 296 297 299 302 303 302 302 303 303 302 300 299 299 298 297 294 294 295 294 292 292 293 295 295 296 295 294 294 293 293 292 293 293 292 292 293 295 295 296 297 297 295 295 294 293 293 293 293 294 294
321 321 320 319 318 317 315 314 314 314 314 314 313 313 313 312 312 311 310 309 308 307 306 304 303 302 302 300 298 297 297 294 294 294 295 295 297 303 302 302 303 303 304 304 303 302 301 300 298 297 294 292 296 294 293 291 291 293 294 294 296 297 296 300 296 296 297 295 294 294 295 297 296 297 297 295 294 293 294 294 293 293 292 291 291
320 319 318 318 317 317 315 314 313 313 313 313 313 313 312 312 312 310 309 309 308 307 306 305 303 302 301 299 298 297 295 294 294 294 294 295 298 300 302 303 303 303 303 304 303 302 301 299 299 295 292 289 292 289 291 295 291 293 293 294 296 296 295 298 297 295 294 294 294 294 293 293 293 294 294 294 293 293 292 291 292 292 290 289 290
319 318 317 317 316 316 315 314 313 313 313 312 312 313 313 313 312 311 309 308 307 306 306 305 303 302 301 299 298 296 295 295 294 294 294 295 299 300 302 303 302 302 302 303 302 301 304 309 303 295 292 291 290 290 291 294 291 292 293 294 294 292 291 292 294 295 295 295 295 295 294 294 295 295 294 293 293 294 293 291 293 292 292 290 288
318 317 316 315 315 315 314 313 313 313 312 312 313 312 313 313 311 311 310 309 308 307 306 305 303 302 301 300 304 298 296 296 293 293 294 295 299 300 302 302 301 301 301 301 300 301 300 305 305 299 294 292 289 289 291 294 290 292 293 293 292 291 291 289 289 290 292 294 294 296 296 298 300 297 298 298 297 298 294 294 294 292 290 290 290
317 317 315 314 315 315 314 313 313 313 312 312 312 313 313 312 310 310 309 308 307 306 305 304 303 302 302 301 301 298 297 296 295 293 294 294 296 300 300 300 300 299 300 300 299 296 294 293 297 293 291 289 289 289 290 291 290 291 291 291 290 290 290 288 291 292 292 291 292 294 295 296 296 294 294 294 298 300 296 295 294 294 292 290 291
317 316 315 314 314 315 315 314 313 313 313 313 313 313 313 311 310 309 308 307 306 305 305 304 303 302 302 302 300 299 299 296 296 292 293 294 295 297 297 297 298 300 299 299 297 296 294 291 290 291 289 289 289 289 289 290 291 290 291 291 291 291 289 288 290 295 290 292 293 294 294 294 293 292 293 293 295 295 296 294 294 293 293 292 290
316 316 316 315 315 316 315 315 314 314 313 313 313 313 312 311 310 309 307 305 304 304 303 303 303 302 302 302 301 299 301 300 297 293 293 293 293 294 297 297 297 298 297 294 293 294 294 293 290 291 289 289 289 289 289 289 289 292 291 292 290 289 289 292 290 290 291 292 292 292 293 292 291 292 294 294 294 296 294 294 294 294 295 293 293
317 317 316 315 316 315 315 314 314 315 313 314 314 311 310 310 308 307 305 304 304 303 303 303 303 302 302 303 303 301 300 300 296 295 293 293 292 292 294 294 293 298 295 293 291 291 291 293 294 293 289 289 289 289 289 289 291 289 289 290 289 289 290 289 289 290 289 291 292 292 292 291 292 291 291 292 294 293 294 294 295 295 296 296 296
317 316 315 316 315 315 315 314 315 315 313 312 310 307 307 307 305 305 305 304 303 302 301 302 302 302 302 302 302 302 299 298 296 295 294 292 292 292 292 292 293 294 295 293 291 290 289 292 294 291 289 289 289 289 289 290 288 288 289 289 289 290 289 288 288 290 291 291 292 292 292 291 291 291 292 294 293 294 295 295 296 295 295 295 295
316 315 316 316 315 316 315 314 313 311 309 309 306 304 303 303 302 302 303 303 303 302 301 301 301 301 300 300 301 300 299 297 296 294 293 292 292 291 291 291 291 291 293 294 291 290 289 290 292 290 289 289 289 289 289 289 289 289 289 288 292 290 289 288 288 290 290 291 292 293 292 292 292 294 294 293 294 293 294 296 295 295 294 293 293
315 315 316 315 313 313 310 309 308 307 306 306 305 304 303 303 302 301 301 301 301 301 299 299 299 300 299 299 299 300 299 297 295 294 294 294 293 291 291 291 292 293 295 293 290 289 289 290 290 289 289 289 290 289 289 290 289 289 289 290 291 289 289 289 290 291 291 292 292 292 292 291 292 295 294 294 293 293 294 294 293 294 294 294 294
312 312 311 310 309 309 307 305 304 304 304 305 305 304 303 301 301 300 300 300 299 299 299 299 299 300 300 299 300 300 300 299 296 294 294 294 293 293 291 292 293 292 294 293 292 291 290 291 290 289 289 289 289 290 290 292 292 293 292 293 292 292 291 291 291 292 292 292 292 292 291 291 293 293 294 294 293 294 294 293 293 292 293 292 291
309 308 307 306 306 306 304 298 302 304 304 304 303 301 301 301 300 300 300 299 299 298 299 299 299 299 300 300 300 301 299 298 296 295 294 294 294 294 293 294 292 292 293 293 293 295 291 290 290 291 291 291 290 291 291 292 291 290 292 293 293 294 295 295 295 293 293 293 294 293 292 292 293 293 293 293 293 293 294 293 293 293 292 292 291
308 306 306 306 305 304 304 304 304 304 304 303 303 303 302 301 301 301 302 301 301 301 300 299 300 301 302 302 300 299 298 298 297 295 295 293 293 294 293 293 293 293 294 293 297 296 292 291 291 290 291 290 288 290 291 291 291 292 293 293 293 294 294 293 293 293 294 293 293 293 293 292 292 294 292 293 293 293 293 292 292 292 292 291 290
307 306 306 306 305 304 304 304 305 304 304 303 303 300 293 297 301 302 301 298 296 297 296 301 302 302 301 301 303 302 300 300 296 294 293 293 292 293 293 293 293 294 293 292 295 294 291 289 291 289 290 291 290 289 290 292 291 291 293 292 293 293 293 293 294 294 294 294 294 292 291 291 292 292 292 292 292 293 292 292 291 291 290 290 289
306 306 305 304 303 304 304 304 304 304 304 304 302 300 299 295 291 295 297 295 294 294 295 297 297 297 301 299 297 297 297 295 294 294 293 293 292 292 292 292 292 292 292 292 293 292 290 288 289 290 289 291 289 289 289 290 289 290 291 292 293 293 291 293 294 293 292 290 291 291 291 290 291 291 291 291 292 292 292 291 291 291 290 289 289
306 305 305 304 301 303 305 304 304 304 304 304 302 300 299 297 296 291 291 292 291 291 291 293 294 294 295 297 298 296 293 294 294 293 293 293 292 292 292 292 292 292 291 292 291 289 288 289 289 290 290 289 289 289 290 291 290 291 290 289 290 291 291 292 293 294 291 290 289 288 288 289 291 290 290 291 288 290 291 290 290 289 290 290 289
307 306 305 303 302 302 303 304 303 304 304 303 302 301 299 298 296 295 293 290 290 291 291 292 292 294 294 294 294 293 292 293 294 294 293 293 292 292 292 292 292 291 291 291 290 290 290 291 291 292 291 290 291 291 291 292 292 292 292 291 289 289 291 293 290 293 290 291 289 288 288 288 287 287 287 287 286 287 289 288 289 290 290 288 287
307 305 303 302 302 302 303 304 304 304 304 304 303 301 300 299 298 295 294 293 294 293 291 291 292 292 292 293 293 292 292 293 293 294 293 292 292 291 291 291 291 291 291 291 290 290 292 292 292 292 293 293 293 292 291 293 293 293 292 292 292 291 292 293 292 290 289 289 289 288 287 287 286 287 287 286 287 287 286 286 287 287 287 288 287
308 299 294 298 303 303 303 304 304 305 305 305 303 301 300 299 297 295 295 294 294 293 293 294 292 292 292 291 291 291 292 292 293 293 292 292 292 291 291 290 287 288 290 292 292 292 291 291 292 293 293 292 292 291 291 292 291 291 291 291 291 291 291 290 289 290 288 288 290 288 288 288 288 287 287 287 287 288 287 288 288 288 288 287 288
306 303 302 301 302 303 303 304 305 305 305 305 305 302 300 299 297 296 295 295 295 295 293 292 290 290 290 290 290 290 291 291 291 291 290 290 290 290 289 287 287 288 288 290 291 291 291 292 292 293 293 293 293 292 292 290 292 292 292 292 291 289 288 288 287 287 286 289 288 288 288 287 286 286 287 287 289 288 287 288 288 287 287 286 286
305 304 303 303 304 303 303 304 304 305 300 300 303 303 302 300 298 299 297 297 296 296 294 292 291 291 290 289 289 289 290 290 290 290 290 290 290 291 291 289 289 290 290 291 292 292 292 292 292 292 293 292 292 291 291 291 292 293 292 292 291 290 289 289 289 286 286 286 286 286 286 288 286 286 287 287 287 287 287 288 286 286 286 286 286
306 305 305 305 305 304 304 304 303 295 299 302 304 303 301 301 300 298 298 298 297 295 295 293 291 290 289 288 292 289 287 289 289 289 289 289 287 288 289 289 289 289 289 291 291 291 292 292 292 292 292 292 291 291 290 290 290 291 291 292 290 289 291 288 288 288 286 286 287 288 286 286 286 285 286 286 287 287 287 286 287 286 286 286 286
308 298 295 295 298 305 304 303 301 302 303 302 303 302 299 300 300 299 299 298 296 296 295 294 292 291 291 290 288 289 289 287 287 286 286 286 287 287 287 288 288 289 289 290 290 289 290 291 291 292 291 291 290 290 289 289 291 289 292 289 289 287 288 288 287 288 287 287 287 286 286 286 286 286 286 286 287 287 287 287 286 286 286 286 287
306 303 297 295 300 302 302 302 302 302 301 303 303 303 300 299 301 300 300 298 297 297 297 296 293 293 293 291 288 288 288 287 287 287 286 285 286 287 287 288 289 290 289 290 290 291 291 291 292 292 291 291 289 288 288 290 291 289 289 288 288 288 288 287 287 287 287 287 287 287 286 287 286 286 286 286 287 287 288 287 287 287 287 287 287
305 304 297 298 299 303 303 301 303 303 303 302 303 302 302 300 302 298 300 298 297 296 297 298 298 296 294 290 289 288 289 288 288 287 287 286 287 287 288 289 288 288 288 288 289 289 290 291 290 290 291 290 290 290 290 289 289 289 288 289 288 288 288 288 287 287 287 286 287 287 287 286 286 286 287 287 289 288 287 287 287 286 287 287 287
304 302 302 301 299 302 302 300 301 298 300 301 302 303 299 299 302 300 297 296 295 296 298 298 299 297 293 291 290 289 291 290 289 288 287 287 288 288 288 289 288 287 287 289 290 291 290 290 290 290 290 290 290 290 290 290 289 289 289 288 289 288 288 287 287 287 287 287 287 287 287 287 287 286 287 289 287 287 287 287 286 286 286 287 286
302 302 302 300 300 300 300 300 301 302 301 301 301 298 299 301 301 300 298 296 296 295 297 298 298 297 294 290 290 288 291 292 289 290 289 289 289 288 288 288 289 288 288 289 290 290 289 289 289 290 290 291 291 290 289 289 290 290 289 288 288 288 288 287 287 287 287 287 287 288 288 287 287 287 287 287 287 287 287 287 287 286 286 286 286
301 301 300 299 300 299 298 299 298 297 299 298 299 298 299 301 301 301 300 299 298 296 297 298 297 295 294 291 289 289 291 293 293 292 291 290 290 290 289 289 289 289 290 291 291 291 289 289 288 289 291 291 291 292 290 289 288 288 288 289 288 288 289 288 288 288 288 288 288 288 288 288 288 287 287 287 287 287 287 286 286 286 285 285 285
303 302 301 300 300 299 299 297 297 296 292 293 297 299 298 301 300 300 300 300 298 298 298 295 295 294 292 292 292 291 292 294 292 292 292 292 292 292 292 292 291 292 292 292 293 293 291 290 290 289 289 291 292 292 291 291 292 292 289 289 289 289 289 289 289 289 289 288 289 289 289 289 289 288 287 287 287 286 286 285 285 286 286 286 286
302 301 300 300 299 298 298 299 294 296 295 296 297 298 298 299 300 299 298 298 297 297 297 295 294 294 292 293 292 291 293 294 294 294 293 293 293 293 293 293 294 294 294 294 294 296 294 293 291 290 290 290 292 291 292 292 292 293 294 293 292 291 291 292 291 289 288 289 289 289 289 288 288 288 288 287 286 286 286 285 286 287 286 286 285
303 302 301 301 299 297 297 298 296 295 297 296 296 296 297 297 298 297 295 299 298 295 297 297 295 293 293 293 293 293 293 293 294 293 293 293 293 293 294 295 295 295 295 296 295 295 294 293 292 291 290 290 291 292 292 291 292 292 294 294 294 294 294 291 290 290 290 290 289 289 289 289 289 288 287 287 286 286 287 287 287 286 285 285 285
302 301 300 299 299 299 298 297 295 292 295 295 296 296 295 296 296 296 297 297 296 295 295 296 295 294 293 294 293 293 293 293 293 292 291 291 291 292 294 294 293 294 294 294 295 294 293 293 293 292 291 290 289 291 292 293 292 292 293 290 287 286 285 287 290 289 287 288 290 289 287 287 286 287 287 288 288 287 288 287 286 285 285 285 285
302 301 301 300 299 299 297 297 296 296 296 295 294 295 294 295 295 295 296 297 297 296 297 297 296 295 294 294 293 293 292 292 292 292 290 290 291 293 294 294 293 294 293 293 294 294 294 294 293 292 292 291 291 291 292 293 292 293 290 285 284 283 283 284 285 286 286 286 287 287 287 289 289 288 288 288 288 287 287 286 284 284 284 284 285
302 301 301 299 299 299 298 297 297 297 295 296 296 295 294 294 294 295 295 297 297 296 297 296 297 297 296 295 293 293 292 291 291 292 292 293 293 295 296 296 295 294 293 293 293 294 294 293 294 293 293 293 292 292 292 292 291 288 285 284 283 284 283 284 283 283 284 285 286 288 288 287 287 287 287 288 287 286 286 285 284 285 284 284 284
300 301 300 300 300 299 298 298 297 296 296 296 296 295 294 294 294 294 294 295 295 295 294 296 297 296 296 295 294 294 293 293 294 294 294 294 294 295 295 295 294 294 294 293 293 291 292 293 291 291 291 290 290 290 289 286 284 284 283 283 283 283 283 283 284 283 283 283 285 286 287 287 287 287 286 286 286 285 285 284 284 283 283 283 283
Wind_Speed
12 11 10 11 13 12 11 11 11 10 11 11 11 10 9 8 9 9 9 9 9 9 8 8 7 7 7 7 7 7 7 8 6 6 6 7 7 7 6 6 7 5 5 5 5 5 4 4 5 5 6 7 5 4 5 3 4 6 5 6 5 4 4 3 2 2 4 2 2 3 5 3 5 5 8 8 8 9 10 7 7 8 8 8 8
12 11 10 12 13 12 12 11 11 10 11 11 11 10 9 8 9 9 10 9 9 9 8 7 7 8 7 7 7 7 7 7 6 6 7 8 6 5 6 6 5 5 5 5 4 4 4 5 5 6 5 6 5 6 4 5 6 7 6 5 4 3 2 2 1 1 3 4 5 5 4 4 4 5 7 8 8 8 9 10 8 8 8 8 8
11 11 12 13 13 12 12 11 11 12 12 10 11 10 9 8 8 10 9 9 8 8 8 8 8 8 7 7 7 7 7 6 6 7 7 7 7 7 6 5 5 6 6 6 6 4 4 4 4 4 4 6 5 5 5 4 6 7 5 3 3 4 4 2 1 1 2 3 3 4 3 4 4 6 8 7 6 6 7 9 9 7 7 7 8
11 12 13 13 13 13 12 12 13 12 12 10 11 10 9 8 8 9 9 9 9 7 8 9 9 8 8 7 7 7 7 6 7 6 6 7 8 8 6 6 5 5 6 5 5 5 4 4 4 5 6 7 5 6 5 5 6 5 5 4 3 4 4 4 2 0 1 3 4 3 3 5 3 4 7 6 7 7 5 6 8 9 8 8 8
12 13 14 14 13 13 12 12 13 12 12 11 11 10 10 9 8 9 9 8 8 9 8 8 8 8 8 8 7 7 7 8 8 6 6 6 8 8 7 6 5 5 5 5 6 5 4 4 4 6 7 7 5 6 5 5 5 6 5 4 3 3 4 4 4 4 4 4 4 3 4 4 3 4 5 6 7 8 6 6 6 8 10 8 7
13 13 13 14 13 13 13 12 13 12 12 11 12 11 10 9 9 8 9 9 9 9 9 7 8 9 8 7 7 7 7 8 7 6 7 7 7 7 6 5 5 5 5 5 4 4 4 5 6 6 7 7 4 4 5 5 5 5 4 4 4 4 4 5 5 5 5 4 4 4 4 5 5 4 5 4 5 7 9 10 8 5 8 11 10
13 13 13 13 12 12 12 12 11 11 11 11 10 10 10 9 9 9 8 10 10 9 8 8 7 8 8 7 7 8 8 7 7 6 7 7 7 6 6 6 6 5 5 5 6 6 7 7 6 7 7 5 5 4 4 5 4 4 3 3 4 4 5 5 5 6 5 5 4 3 4 4 3 5 6 5 3 1 3 6 10 9 7 8 10
13 13 13 13 12 12 11 11 11 11 10 10 10 10 10 9 9 8 9 10 9 9 8 8 7 7 7 7 7 7 7 7 7 7 7 7 7 7 7 7 6 6 6 6 7 7 7 6 6 6 6 4 4 4 4 4 3 4 3 3 4 5 5 5 6 6 6 5 4 5 4 3 6 3 4 4 5 6 4 3 7 9 9 9 8
14 13 13 13 12 11 10 10 10 10 10 10 10 10 10 8 8 9 9 9 7 7 7 8 8 7 7 8 7 7 7 7 6 7 7 7 7 8 7 7 7 7 7 8 8 8 6 5 5 5 5 6 6 5 5 4 3 3 3 4 4 4 4 5 5 6 6 5 6 5 6 6 5 5 7 5 6 6 6 4 4 6 7 9 11
14 13 13 12 11 11 11 10 10 10 10 11 11 10 9 8 9 10 9 9 7 7 7 8 8 8 8 8 7 6 6 5 8 12 9 8 8 7 7 7 7 8 9 9 9 8 7 6 6 10 9 6 5 5 5 5 4 3 2 3 3 4 4 4 5 4 4 5 5 4 6 6 6 5 4 5 5 4 7 6 6 7 7 8 10
13 13 13 12 12 11 11 11 11 12 11 10 9 10 9 8 10 10 9 8 7 7 8 8 7 8 9 8 7 6 6 6 13 14 14 13 8 7 7 7 6 6 7 8 8 8 7 6 5 6 6 4 1 1 2 1 2 3 2 2 1 2 2 3 3 2 3 3 2 3 3 5 7 5 5 6 4 4 4 5 6 7 7 7 8
14 13 13 12 12 12 11 12 12 12 11 11 10 9 8 9 9 9 9 8 7 7 8 7 7 7 7 8 7 6 5 9 15 15 14 14 10 8 6 6 6 6 7 8 7 7 7 7 5 4 4 3 3 2 2 3 3 4 5 4 3 3 1 1 1 2 1 2 4 4 3 5 6 6 6 4 5 6 6 7 7 5 7 7 7
13 13 13 13 12 11 12 12 12 11 11 10 9 8 9 10 9 9 9 7 7 8 8 7 7 7 8 8 6 5 4 9 14 15 14 14 13 9 6 5 6 6 6 8 7 7 6 6 5 4 3 8 5 3 3 2 3 4 5 5 5 6 6 5 4 1 1 1 3 5 4 3 5 7 4 3 3 5 6 8 8 8 6 6 7
13 13 13 13 12 12 12 12 12 11 10 10 9 9 10 10 8 8 8 7 8 8 8 8 7 7 8 8 7 6 6 9 14 14 13 14 13 10 5 6 5 4 6 7 7 8 8 7 6 4 4 3 3 3 3 1 1 2 3 4 4 6 6 7 7 7 4 4 4 4 6 2 6 6 9 3 4 5 6 7 8 7 8 8 9
12 13 13 12 12 12 12 12 12 11 11 10 9 10 10 9 8 8 8 8 8 9 9 8 7 8 8 8 8 7 6 10 14 14 13 14 14 10 6 5 5 5 6 6 7 8 7 7 6 6 4 4 3 4 2 1 0 1 1 3 4 6 4 4 4 4 4 5 6 8 10 7 6 8 8 4 4 4 3 5 6 6 7 7 6
12 12 12 13 13 12 12 12 12 11 11 10 10 10 9 10 9 7 7 6 6 6 6 7 8 8 8 9 9 7 6 11 14 14 14 13 11 6 5 5 5 5 5 6 7 7 8 7 6 6 6 5 5 7 4 2 1 1 3 4 4 4 4 6 8 6 5 5 6 8 8 8 9 9 9 7 7 5 5 4 4 3 5 7 7
13 12 13 13 12 12 12 12 12 12 12 12 11 10 10 9 7 7 8 7 7 7 7 7 7 8 9 9 10 8 7 8 13 14 13 13 8 5 5 5 4 4 5 5 6 6 5 4 5 7 6 5 6 8 7 6 2 1 3 4 4 1 2 2 3 8 10 11 12 12 13 14 14 15 14 11 5 4 0 4 6 4 6 7 7
13 13 12 12 12 11 11 13 13 13 12 12 12 10 9 8 8 8 9 8 8 7 7 7 7 8 10 9 10 10 7 8 11 14 14 13 8 6 5 5 5 5 5 4 5 5 5 10 9 7 7 5 8 8 7 4 2 2 2 4 2 2 2 3 2 3 7 9 9 10 11 12 13 13 9 9 6 6 2 4 6 3 6 5 6
13 13 12 11 11 11 11 12 13 14 14 12 11 11 10 8 7 8 8 8 7 7 7 7 7 6 8 9 10 11 9 8 10 11 13 12 7 4 4 6 6 5 5 5 3 5 4 6 10 9 7 8 10 7 7 5 3 2 1 1 2 2 1 2 4 5 7 8 9 9 10 12 9 5 3 5 5 5 4 4 5 3 6 6 6
12 11 11 11 11 10 11 13 13 13 13 11 10 10 9 7 8 8 8 8 8 7 7 8 9 7 7 8 8 8 9 7 8 11 12 12 11 5 3 5 7 6 5 6 5 2 4 4 7 12 12 12 10 9 7 6 4 3 2 2 1 2 2 4 2 2 4 4 6 5 7 8 7 2 2 4 6 4 3 3 3 3 4 7 6
12 12 11 11 11 11 11 12 13 12 11 11 10 9 8 8 8 9 8 7 8 7 8 8 9 8 8 9 8 7 8 9 8 11 12 12 11 8 4 4 2 6 7 7 6 6 5 5 5 10 13 12 11 10 8 7 6 3 2 1 0 1 2 4 4 5 4 5 5 6 7 7 4 3 3 4 5 4 4 4 4 3 3 5 7
12 12 13 14 13 12 12 11 11 11 10 10 10 10 8 8 9 9 8 8 8 8 7 8 8 8 8 9 8 9 8 12 9 12 13 13 12 9 6 4 4 5 5 4 3 5 7 7 5 9 13 13 12 10 9 8 6 2 2 6 4 1 1 1 2 4 5 5 5 6 7 6 4 4 4 5 4 4 4 4 5 5 5 3 3
12 12 11 12 12 12 12 13 11 9 10 11 10 9 8 9 8 9 9 8 8 8 8 8 8 8 7 7 7 8 8 9 14 11 13 13 13 11 9 7 7 6 7 4 2 0 2 4 5 12 13 13 11 11 9 9 6 3 6 5 4 0 1 2 2 3 5 5 5 6 7 5 4 3 4 6 6 4 4 4 5 5 6 6 5
12 11 11 11 11 11 12 12 11 10 11 10 8 8 9 9 8 8 8 9 8 8 7 7 7 8 8 6 6 7 7 7 10 14 12 14 13 13 12 9 9 5 4 6 3 1 2 4 6 11 13 13 12 11 9 8 5 7 7 6 5 2 1 3 3 3 4 5 6 6 6 5 3 3 5 5 4 4 5 4 5 5 5 6 6
12 12 12 12 11 10 10 10 9 9 9 11 10 9 8 9 8 6 8 8 8 8 7 7 7 7 7 6 6 6 7 6 6 10 13 13 13 12 12 10 8 9 4 2 2 0 4 8 11 14 12 9 9 7 5 5 6 7 7 8 5 2 3 3 5 3 4 5 6 6 3 5 4 5 5 4 3 2 3 5 5 5 4 3 4
11 13 11 10 9 9 10 9 9 9 10 9 10 9 10 9 9 7 7 8 8 8 7 7 7 6 6 7 7 7 8 7 7 8 9 10 11 12 11 10 8 7 6 6 6 5 6 10 14 12 9 8 5 3 4 5 7 9 10 8 4 5 5 5 5 4 6 6 6 5 5 4 5 5 4 1 2 4 4 6 6 7 7 7 8
10 10 9 9 9 11 12 9 8 8 9 9 9 9 9 8 9 9 8 8 8 7 7 7 6 7 7 7 7 6 8 8 8 7 8 8 8 8 8 8 9 9 7 4 5 4 7 8 9 10 8 9 7 5 5 5 5 6 5 5 5 6 5 6 6 5 6 6 6 6 5 5 3 3 4 4 4 5 3 3 4 7 6 6 5
11 10 10 9 9 9 10 13 13 9 9 10 9 8 7 8 9 9 9 8 8 7 7 7 8 8 9 8 8 7 8 7 8 10 9 9 9 8 9 8 7 7 7 6 5 5 4 5 7 6 5 3 3 2 4 5 6 6 6 6 6 7 8 8 6 5 7 7 6 6 5 3 3 4 4 3 4 6 4 3 3 5 6 4 5
11 11 10 9 9 8 9 9 9 9 8 7 6 7 9 8 7 5 4 5 7 8 8 8 8 7 7 8 8 8 8 10 12 11 12 13 12 10 9 10 9 8 10 11 6 5 4 4 4 5 5 6 4 6 6 6 6 7 7 7 6 6 6 5 6 7 7 6 7 7 7 5 4 4 4 4 4 6 4 4 4 3 6 3 3
11 10 9 9 9 8 7 7 7 7 8 7 7 5 8 5 5 8 6 7 10 13 10 9 10 8 7 7 9 10 10 11 14 17 18 18 17 18 16 15 13 11 11 16 9 5 6 6 6 6 7 6 7 7 7 7 7 7 7 8 7 6 7 7 7 7 7 8 7 7 7 4 5 6 4 4 5 5 5 3 4 2 2 4 6
9 8 8 8 9 9 8 8 8 8 7 7 6 7 5 5 10 1 9 8 10 11 11 12 12 11 9 6 4 8 12 17 20 19 18 19 18 17 16 15 15 14 14 11 7 7 7 7 7 7 8 8 7 8 8 7 7 6 7 6 5 7 7 7 8 8 8 7 7 8 6 5 6 6 6 4 5 6 6 5 2 3 4 4 4
10 8 8 8 9 9 8 8 8 8 7 7 7 8 8 6 3 9 5 10 10 8 8 7 9 11 14 10 7 2 9 19 22 21 20 20 19 19 18 16 14 13 15 15 8 7 7 8 7 8 8 7 7 7 7 7 7 6 6 5 7 8 9 8 8 8 7 7 7 5 5 5 6 5 4 5 4 6 5 6 6 5 6 4 4
11 9 8 8 8 8 8 8 8 8 9 9 8 8 8 9 9 6 4 8 7 7 1 6 10 13 13 12 13 12 11 15 21 21 20 20 19 19 18 15 14 14 12 9 8 8 7 7 7 7 8 7 7 7 7 6 6 6 6 7 7 9 8 8 5 5 6 7 6 6 5 5 4 4 4 4 4 4 5 5 6 5 4 5 7
10 10 9 10 10 8 8 9 9 9 9 9 9 9 9 8 8 8 7 4 3 4 5 4 2 8 9 12 14 13 16 19 21 22 20 18 18 16 15 10 12 14 14 10 7 8 8 9 8 8 7 7 6 7 6 6 6 7 7 8 8 7 6 5 4 6 6 7 8 7 5 4 4 4 7 5 3 1 4 5 5 5 7 7 7
9 10 15 12 9 9 8 8 9 9 9 10 10 10 9 8 9 9 10 9 8 8 6 2 1 1 3 4 8 11 14 18 19 18 17 16 15 15 12 6 5 5 7 8 9 8 9 10 10 8 6 6 7 7 7 5 5 7 7 8 8 7 6 4 5 5 5 5 5 5 5 5 5 7 5 3 4 5 5 6 6 6 6 7 6
9 9 9 11 9 8 8 9 8 9 9 9 8 7 8 9 9 8 9 9 9 8 5 2 2 7 8 6 2 7 11 12 12 11 12 14 15 16 9 7 6 8 8 9 9 9 8 8 8 8 7 6 6 7 6 4 5 6 7 8 8 7 6 4 4 3 3 4 6 6 5 5 6 4 1 1 3 5 5 5 6 6 5 5 6
9 8 8 8 8 8 8 8 8 8 7 7 8 8 8 9 9 8 8 8 7 6 6 5 4 3 5 4 5 7 7 6 7 10 13 14 17 13 9 10 10 9 9 9 9 8 8 7 7 7 7 7 7 7 4 4 3 4 6 7 6 6 6 5 5 4 4 4 5 5 5 6 4 4 2 3 5 5 6 6 6 6 5 5 4
9 9 8 9 8 8 7 7 7 8 8 7 7 8 7 9 9 9 9 8 9 8 8 7 6 7 8 5 3 3 6 7 9 6 3 5 6 7 7 7 8 8 9 8 7 6 7 6 5 7 7 6 7 6 4 4 4 4 6 7 5 6 5 5 3 3 4 4 5 5 5 5 5 4 2 3 6 6 7 6 5 5 5 4 4
8 11 13 12 9 8 7 8 8 8 8 8 8 8 8 8 8 8 8 8 9 8 8 8 8 7 7 7 6 6 8 5 5 7 7 7 7 7 6 7 7 7 7 7 7 7 6 6 6 6 5 6 6 5 5 5 5 5 6 5 4 4 3 4 4 5 4 5 6 5 4 6 6 5 4 4 5 6 7 6 5 4 5 6 7
9 8 10 13 8 8 7 7 8 8 8 8 8 8 8 8 9 9 8 8 8 8 8 8 8 8 8 8 7 7 8 8 8 8 8 7 7 7 6 6 7 7 7 6 6 6 6 6 6 6 6 5 6 6 5 6 5 5 5 6 6 6 5 5 5 5 5 6 5 5 4 6 6 4 2 4 7 6 5 6 6 5 6 6 7
8 9 9 9 9 7 7 6 7 7 7 8 7 8 9 9 8 7 8 9 9 9 9 9 9 8 9 13 15 15 10 9 9 8 9 9 9 8 7 7 7 7 7 7 7 7 7 6 6 6 6 6 6 6 7 7 7 6 6 7 7 8 6 5 4 5 5 4 6 5 5 5 5 4 6 7 5 5 6 5 5 5 6 6 7
9 8 8 7 9 8 7 7 6 7 7 7 7 7 7 7 6 5 7 8 9 9 8 8 7 8 12 19 19 20 12 8 8 8 8 8 8 9 9 8 7 7 7 7 7 7 7 6 6 6 6 6 7 7 8 8 7 7 8 8 8 6 5 5 5 4 4 5 4 5 5 7 7 6 5 6 6 5 5 5 5 4 5 7 7
9 9 8 8 8 8 8 8 7 7 6 7 6 6 6 7 7 6 7 7 8 9 9 9 6 7 10 17 19 19 11 7 6 8 8 8 8 8 8 8 8 8 8 7 6 6 6 6 6 6 6 7 8 8 8 7 7 7 7 7 7 6 6 6 5 4 4 4 5 6 6 5 5 6 6 5 6 5 6 5 4 4 4 4 4
8 8 7 7 7 6 6 6 6 6 6 6 6 7 7 7 6 6 6 7 7 8 8 8 7 7 8 11 12 10 9 7 7 7 8 8 8 8 8 8 7 7 6 6 7 8 7 6 7 7 6 7 6 6 7 7 5 5 6 5 6 6 6 6 6 6 5 5 6 6 7 7 7 6 5 6 5 5 5 3 2 2 2 3 2
8 8 8 7 7 7 6 6 6 6 5 5 5 5 6 6 6 6 6 6 7 7 7 6 6 6 6 7 9 10 9 8 8 7 8 8 9 8 7 7 7 8 7 7 6 6 7 6 6 6 6 6 6 6 6 5 4 5 4 5 6 7 6 6 6 6 5 5 6 6 6 6 7 7 7 7 6 4 4 3 1 1 1 2 3
8 8 8 7 7 6 7 6 6 7 6 6 6 6 6 5 6 6 6 6 6 5 5 4 5 7 7 7 8 9 9 9 8 8 8 7 7 7 7 7 8 8 7 6 6 7 6 6 6 6 6 6 7 7 7 6 6 6 4 5 6 7 7 6 4 3 5 5 6 6 7 6 6 6 6 6 4 3 2 1 1 1 3 3 2
8 8 8 7 7 6 7 6 6 7 6 7 6 6 6 6 6 6 7 8 7 7 6 6 7 7 7 7 8 9 9 8 8 8 8 7 7 7 8 8 9 8 8 8 8 6 6 7 6 7 7 7 7 7 7 6 6 6 7 6 4 3 1 1 2 4 5 5 5 5 6 6 6 7 5 3 1 1 0 1 2 3 3 1 1
7 7 7 7 7 7 6 6 7 7 6 6 6 6 7 6 6 6 6 6 6 6 6 6 6 6 7 7 7 7 7 8 7 7 7 7 7 7 8 9 7 7 7 8 8 6 7 7 7 7 7 6 6 7 7 6 6 6 3 1 2 2 2 3 2 2 1 0 0 2 2 3 2 2 2 1 1 1 0 1 1 1 2 2 2
7 7 7 7 7 7 7 7 7 6 6 6 6 6 6 6 6 6 6 6 6 6 6 6 6 6 6 6 6 6 6 7 7 7 7 7 6 7 8 9 8 9 7 7 7 9 9 8 7 7 7 6 5 6 6 6 6 3 2 3 3 6 6 6 4 2 3 2 1 1 1 0 0 0 0 0 0 0 0 1 3 3 3 3 3
7 7 7 7 7 6 7 7 7 6 6 6 6 6 6 6 6 6 6 6 6 6 6 6 6 6 6 6 6 7 7 7 7 7 7 6 6 6 7 8 8 8 8 8 7 8 7 7 7 6 5 5 7 6 7 7 3 3 3 3 5 7 7 7 6 5 3 1 1 0 1 1 1 1 1 1 0 3 5 5 4 4 3 4 5
7 7 7 7 7 6 6 7 7 7 6 7 7 7 7 7 6 6 7 7 7 7 6 6 5 6 6 6 7 7 7 7 7 7 7 6 6 6 6 7 8 7 7 7 7 6 6 6 5 6 6 6 4 4 3 4 3 4 6 7 7 7 7 5 3 2 2 2 1 1 1 2 1 1 3 5 6 6 5 5 4 4 5 5 5
Wind_Direction
160 160 154 149 145 144 143 142 140 137 138 142 143 148 150 149 144 137 131 134 136 136 142 146 145 140 139 137 136 135 132 133 133 131 124 121 121 120 118 114 117 121 115 108 107 98 94 88 78 75 76 64 57 57 43 21 43 65 87 83 72 62 82 92 59 329 310 298 318 308 316 1 6 5 12 2 359 359 358 2 358 350 344 337 331
164 158 149 147 145 145 143 142 139 139 140 144 145 151 153 153 146 137 134 141 137 142 149 151 143 140 137 137 137 135 135 135 137 129 129 129 126 122 121 122 118 117 112 109 102 107 103 91 78 75 77 80 62 50 51 64 58 51 35 65 75 65 77 81 27 89 321 318 339 331 339 19 19 9 18 2 356 1 358 350 352 349 341 334 331
161 153 148 146 146 145 144 145 144 144 144 147 151 154 156 151 147 139 140 141 142 151 155 149 145 141 138 141 140 140 139 137 135 133 136 133 128 126 128 120 121 120 112 113 115 114 100 93 79 71 72 69 61 54 45 58 63 61 42 40 49 34 23 44 95 13 339 312 301 338 343 360 31 11 11 358 355 4 359 349 341 339 339 335 331
155 148 148 145 146 146 147 146 147 147 148 152 154 157 155 152 148 144 145 147 150 154 151 147 143 142 143 144 145 144 139 136 136 138 138 131 128 128 124 124 124 122 123 122 118 114 121 105 97 90 79 68 49 45 37 58 64 60 48 21 34 21 7 3 24 84 311 8 318 6 329 23 353 13 6 354 354 356 358 333 335 336 338 335 332
150 148 147 145 148 148 149 149 148 150 150 153 157 157 158 154 154 152 150 152 151 148 149 146 143 145 148 151 149 145 140 139 138 137 131 126 128 128 130 132 134 136 136 136 131 128 125 121 106 89 87 81 52 49 35 55 63 56 44 20 13 11 8 14 10 40 51 23 330 325 359 17 358 1 5 4 347 344 346 351 341 325 329 331 329
147 147 146 146 150 151 151 151 148 150 152 156 158 161 161 160 157 155 153 147 148 150 150 150 149 148 151 151 147 143 140 139 141 140 133 131 128 131 132 132 134 130 127 123 121 112 95 82 82 86 85 91 81 60 50 44 53 55 41 17 11 19 25 15 23 29 38 17 17 350 5 11 355 347 345 13 11 342 341 341 338 336 335 337 337
147 146 149 147 151 154 154 153 148 150 156 158 158 162 164 162 154 155 149 147 149 152 152 147 148 148 150 147 147 144 143 142 142 140 136 135 135 130 125 127 126 121 117 111 97 88 85 82 78 80 83 86 86 81 73 55 56 55 40 31 24 42 30 25 23 29 32 22 359 21 3 354 29 350 333 347 352 344 310 331 336 337 341 338 332
147 148 149 150 153 156 153 148 147 150 154 157 162 165 163 158 153 144 144 148 152 154 154 149 149 145 148 146 147 143 142 143 143 140 139 137 133 128 130 130 123 117 110 93 86 83 84 83 84 87 92 90 99 96 91 86 65 50 14 44 41 47 38 26 30 27 26 18 19 354 354 349 345 323 317 348 346 336 354 351 334 328 334 333 330
148 150 150 152 155 152 146 145 145 150 156 161 165 165 161 154 147 143 147 149 152 152 148 146 145 143 144 146 146 145 145 150 149 147 141 138 132 132 134 133 130 124 111 105 102 99 93 95 94 96 102 102 101 98 92 92 104 82 19 54 51 55 40 37 35 32 21 32 3 0 358 349 326 329 325 327 339 322 314 348 308 315 328 337 332
149 150 151 151 150 147 145 146 151 155 161 167 169 163 158 152 147 145 149 150 150 147 146 147 145 146 146 146 145 146 149 150 153 147 144 142 137 137 137 138 138 139 132 123 117 117 120 116 120 118 108 111 98 89 76 75 104 134 121 87 77 64 57 54 39 35 40 27 359 351 346 324 306 310 306 297 300 316 332 334 336 331 346 341 325
150 151 150 148 147 146 146 150 154 161 166 168 168 162 152 147 145 144 148 151 150 150 148 149 146 148 146 147 148 148 151 154 148 143 142 139 137 140 144 147 142 129 117 120 129 128 124 125 126 125 124 124 93 77 67 21 327 331 1 20 78 108 94 65 33 69 59 20 312 338 313 304 301 297 294 290 306 317 309 319 327 339 347 342 331
150 150 147 148 147 147 148 150 157 163 165 169 168 159 142 142 145 146 148 150 151 147 150 151 146 145 141 142 138 141 149 152 147 145 143 143 142 143 141 137 133 135 137 138 134 127 133 136 141 137 145 165 182 204 226 255 265 285 294 299 313 310 194 147 89 38 41 1 321 290 275 281 281 297 294 308 312 331 330 335 331 335 333 331 315
148 147 148 149 149 146 148 153 157 163 167 167 165 156 146 145 148 150 157 155 145 149 155 144 146 142 141 134 132 135 136 156 148 147 147 146 141 134 135 132 141 151 147 143 138 138 145 151 150 161 178 197 189 190 203 254 276 273 280 290 288 264 260 245 227 213 164 195 249 286 255 254 290 289 275 303 335 330 332 332 325 327 319 314 303
145 145 147 149 148 149 151 154 159 165 167 167 165 158 152 153 152 153 151 146 148 152 148 145 145 143 141 132 133 136 133 156 140 141 142 141 139 136 140 146 162 165 147 142 147 149 153 156 162 174 203 174 128 150 158 190 248 249 248 257 263 266 257 251 249 237 221 217 223 254 274 199 261 273 286 310 333 317 331 316 312 315 315 304 294
145 147 148 149 149 152 156 158 161 165 168 167 165 160 155 152 153 155 155 153 153 157 152 148 151 144 137 133 133 141 148 153 137 134 135 136 139 138 145 163 167 162 152 154 156 158 160 163 168 173 163 141 146 138 117 115 76 358 316 275 256 253 236 234 235 235 222 216 224 236 261 270 257 266 276 297 296 289 269 264 278 276 282 290 300
148 150 148 151 154 156 157 158 161 165 167 168 165 161 158 159 155 152 142 137 140 135 133 140 146 143 135 138 137 144 153 158 139 137 133 132 129 141 155 164 162 163 163 163 158 162 164 169 170 155 155 149 140 120 121 122 91 17 324 303 292 261 231 224 226 221 219 218 225 236 250 263 270 277 285 298 301 299 312 313 302 309 333 334 324
154 154 150 152 155 155 156 158 164 168 170 168 167 163 160 160 151 152 144 146 147 148 148 149 142 134 139 144 143 148 154 175 150 141 138 133 128 150 163 160 150 150 147 145 147 154 156 157 154 149 149 153 147 131 139 120 103 53 348 309 316 61 38 0 265 246 248 249 251 258 268 282 290 293 299 293 256 247 291 344 318 337 348 335 318
158 156 156 156 157 156 157 163 169 171 172 173 168 165 163 159 157 158 154 152 151 150 142 134 131 140 145 149 151 149 161 179 170 152 147 145 146 155 159 152 151 146 142 135 138 133 140 126 135 145 151 156 155 140 158 139 99 82 16 340 354 75 336 309 311 318 335 323 305 296 288 287 293 298 287 273 256 185 154 299 290 350 323 318 310
161 163 159 154 155 160 163 168 174 175 175 174 169 167 169 163 153 155 153 150 150 141 136 130 128 139 144 147 148 149 162 178 181 163 153 152 146 160 153 151 150 149 145 151 131 131 124 115 133 149 150 155 150 148 144 129 115 94 68 14 65 66 298 344 12 345 339 344 334 340 333 324 321 301 273 276 273 191 181 232 281 321 309 310 308
159 156 153 155 160 164 169 173 177 177 174 170 168 167 163 151 149 148 148 149 148 145 139 134 137 143 140 139 149 153 156 163 179 179 170 164 163 154 121 135 163 162 159 167 139 163 148 132 134 142 144 149 151 142 139 126 125 124 106 78 63 353 317 351 349 337 307 303 298 308 300 301 292 316 349 347 334 336 310 282 267 267 307 308 308
151 153 157 160 168 172 170 175 173 173 171 167 163 162 163 154 147 146 147 147 145 146 143 139 137 141 141 144 156 165 166 172 182 180 181 178 175 155 132 99 135 171 167 176 164 166 184 174 161 159 155 158 154 150 143 134 130 129 133 140 172 247 5 356 325 332 304 299 307 311 310 299 308 341 324 322 323 331 313 297 282 283 300 304 317
154 155 161 167 173 171 169 169 170 166 166 166 164 165 159 153 153 149 146 149 152 149 145 143 139 145 154 159 166 170 179 175 174 188 187 185 183 164 128 129 111 128 153 161 144 180 184 183 177 180 168 165 162 158 154 146 150 144 193 208 230 1 338 294 300 315 315 309 312 315 305 308 327 325 320 315 320 323 301 291 297 304 300 259 254
159 161 159 163 166 166 167 166 166 167 168 171 166 154 152 154 159 156 146 142 144 146 147 147 144 151 158 169 168 170 176 184 182 181 191 188 186 174 150 130 103 98 106 106 119 229 278 228 207 178 174 168 165 163 162 156 158 195 215 238 247 8 326 313 309 313 310 308 309 300 291 296 319 313 313 311 312 311 293 306 309 308 310 309 304
157 159 162 165 166 166 166 165 165 163 163 163 152 141 155 154 150 154 147 142 145 149 153 148 150 157 166 169 175 171 177 178 188 184 183 192 190 181 176 155 121 117 112 115 111 173 254 223 192 188 179 175 169 167 167 169 192 205 221 238 257 287 293 297 297 279 287 302 300 279 283 294 278 309 303 297 299 287 291 323 321 312 311 313 314
156 162 165 169 168 164 160 158 154 145 145 148 145 143 142 144 142 151 141 144 151 157 159 157 161 164 169 175 180 168 171 175 176 192 185 191 195 185 181 168 137 126 123 155 113 145 228 223 193 178 178 166 162 160 164 200 219 224 234 248 254 236 236 246 259 275 288 277 265 258 284 265 253 253 268 299 296 307 333 330 322 311 301 293 287
157 164 168 163 156 144 138 142 141 140 140 142 143 146 148 153 150 151 145 149 155 159 165 163 166 170 172 180 183 171 168 164 177 187 194 193 197 188 171 161 152 157 152 158 142 126 112 122 124 134 140 147 145 164 198 222 234 236 242 245 244 236 227 235 251 241 252 261 262 264 257 265 294 283 295 336 13 322 322 327 338 328 334 344 348
148 148 146 141 137 138 138 141 137 137 135 137 142 147 149 151 151 155 158 159 157 161 167 167 169 180 182 182 194 177 171 171 174 175 186 189 192 179 161 163 165 165 168 170 147 138 143 143 149 157 158 164 168 184 205 233 243 250 242 231 226 231 227 224 230 229 241 250 264 260 246 257 280 339 329 334 308 294 304 310 325 302 316 331 350
146 144 140 136 137 139 138 143 143 146 148 148 146 144 149 155 161 168 172 165 160 163 166 178 185 188 184 190 192 184 172 166 165 181 194 187 192 182 184 178 174 177 176 177 184 176 173 147 136 139 139 143 191 232 238 233 230 235 240 231 232 233 234 235 239 230 240 237 247 258 280 290 301 280 286 293 284 286 296 324 302 300 304 335 355
140 136 135 134 134 136 141 150 150 146 143 140 136 147 157 163 162 171 182 167 171 163 172 185 191 196 193 195 186 183 168 179 189 191 182 187 185 188 195 194 185 188 185 172 169 176 156 149 152 158 170 186 197 209 219 225 236 233 237 235 233 235 234 218 227 234 235 231 234 229 232 243 256 259 256 289 289 284 297 319 294 272 305 352 320
137 140 141 140 138 136 140 140 139 142 143 143 130 84 27 79 165 169 178 171 151 165 169 184 191 188 205 211 189 188 186 186 176 181 185 188 194 193 199 197 190 187 179 176 170 163 177 180 184 182 189 195 202 209 212 214 224 234 237 233 232 235 236 233 231 236 237 229 218 200 220 215 242 253 254 267 290 293 284 268 280 306 314 314 312
139 140 139 143 147 147 149 148 151 148 149 143 131 129 128 38 21 24 174 149 145 156 176 186 183 196 203 218 238 219 168 155 168 183 190 190 192 199 201 198 190 186 171 168 185 176 183 187 196 195 197 200 205 211 211 214 224 229 242 242 233 233 235 233 235 227 213 202 201 205 205 196 229 240 250 259 261 273 292 292 277 293 279 279 302
145 153 153 148 147 150 153 151 150 148 150 145 145 150 148 133 108 23 37 155 149 148 146 180 198 220 229 204 157 80 155 163 170 182 193 191 194 198 200 195 190 180 182 171 179 197 183 189 194 202 201 204 214 212 213 219 226 227 235 253 257 247 233 234 226 202 199 199 205 211 212 211 219 231 235 251 244 264 277 298 298 290 289 299 281
151 154 151 149 152 152 153 153 158 159 161 156 160 162 159 163 153 148 31 18 64 84 179 214 207 213 208 182 166 162 168 174 175 186 193 193 192 196 195 190 183 181 165 178 196 199 203 200 201 205 203 210 211 211 218 220 229 232 229 228 238 239 218 227 224 210 201 202 199 214 215 224 218 226 243 244 238 270 295 291 284 285 278 290 292
146 149 154 159 159 165 166 165 167 170 175 168 166 166 169 165 162 149 139 132 64 34 33 23 227 187 182 182 179 173 168 176 183 188 190 190 189 187 179 185 186 179 176 195 196 208 206 213 216 214 210 210 212 212 218 225 230 237 242 240 233 237 239 242 220 223 216 218 217 227 220 217 199 207 234 248 266 263 272 274 279 291 295 282 274
149 152 153 158 167 170 172 170 172 173 177 177 170 175 170 165 155 158 162 163 172 176 185 199 277 152 148 189 191 181 177 179 183 185 184 181 178 171 150 134 162 204 205 211 206 211 212 214 218 216 210 209 217 210 213 219 226 232 233 234 238 239 247 230 213 215 214 232 231 236 222 210 214 214 218 255 288 294 283 286 292 278 268 278 272
141 147 158 161 164 172 173 174 175 177 180 180 170 163 158 153 162 168 167 169 169 172 168 147 83 33 41 30 71 167 161 159 164 167 174 170 162 145 154 180 186 194 200 208 211 212 212 216 215 218 211 220 223 226 216 222 245 248 240 227 231 226 214 219 237 237 226 201 213 210 197 216 221 232 229 203 231 246 263 268 267 270 259 253 248
140 146 156 163 166 173 175 177 176 176 168 161 162 158 160 167 172 169 169 172 168 164 151 133 100 68 52 44 73 87 96 128 158 169 170 169 166 166 178 177 190 190 199 206 208 212 210 214 208 211 213 217 225 226 220 222 236 255 256 241 218 209 219 221 225 196 180 195 201 196 199 223 238 238 205 267 283 281 272 264 251 251 249 251 265
144 152 158 163 161 160 166 173 171 156 158 166 173 174 168 173 175 176 174 174 170 160 160 166 166 160 159 156 144 132 122 111 103 88 111 156 173 188 184 187 188 191 198 207 205 203 212 211 204 210 217 215 226 233 230 242 249 264 269 252 226 216 224 220 231 215 222 219 224 226 223 234 234 238 207 212 250 262 265 251 256 277 284 283 281
150 148 150 152 156 159 159 164 160 170 174 178 179 177 173 171 173 179 178 172 173 176 166 170 178 177 169 153 143 133 115 119 159 182 186 199 202 201 190 188 192 200 201 202 203 201 208 210 214 215 220 219 227 238 239 249 253 262 262 260 255 251 246 236 237 230 222 229 238 240 231 242 243 241 231 230 250 241 243 259 258 237 258 279 281
143 145 148 147 153 156 160 159 166 170 174 177 182 181 175 174 177 180 179 172 178 180 182 172 178 182 169 160 155 153 162 174 189 189 191 194 204 213 207 196 197 200 201 206 205 209 209 217 214 218 223 225 226 241 244 246 249 249 257 249 239 240 230 212 217 216 220 224 228 246 247 253 254 249 240 219 239 249 256 258 254 259 264 272 274
138 142 146 154 153 153 154 151 162 174 172 175 169 175 187 183 175 167 166 173 177 181 188 184 180 176 171 181 176 174 178 187 190 191 191 193 199 203 207 210 202 202 203 204 208 209 213 215 217 216 218 221 224 231 241 241 243 246 251 249 239 231 232 228 213 213 218 220 231 242 246 239 241 237 261 268 268 261 253 245 259 271 277 277 277
138 140 147 148 152 152 151 156 155 154 159 164 166 172 167 175 170 155 161 166 172 179 183 188 178 171 182 184 185 189 192 197 186 187 191 196 200 206 208 208 206 203 200 205 205 210 217 221 220 215 217 220 223 228 229 234 231 233 236 232 218 221 220 224 213 214 219 230 246 248 252 249 248 237 240 248 264 260 259 260 262 281 294 291 291
148 155 152 148 153 159 163 165 158 156 161 169 176 167 165 169 180 171 168 171 172 179 183 187 184 165 184 190 193 193 202 199 187 190 190 198 202 206 208 212 212 210 205 202 201 204 206 209 218 220 221 223 219 217 214 224 226 226 222 215 215 207 209 214 217 223 227 240 253 255 249 248 250 253 250 244 238 245 248 258 279 292 293 298 301
146 147 148 153 151 149 152 157 167 173 173 170 159 164 170 177 181 177 177 179 179 184 186 187 179 166 179 195 194 190 206 204 192 193 197 195 199 204 206 208 210 214 215 204 201 209 210 212 219 225 221 221 217 213 208 204 194 200 213 217 213 205 205 212 217 225 225 235 250 253 256 252 250 249 258 260 259 254 261 269 283 294 297 293 292
142 143 146 148 152 153 161 160 157 152 139 140 152 168 172 177 181 181 173 179 182 181 191 183 179 166 163 172 183 194 203 206 203 195 199 199 202 207 203 199 203 212 216 218 209 201 206 211 216 223 236 244 241 236 237 237 214 206 200 197 204 212 217 217 219 219 213 225 241 249 252 252 254 252 251 253 247 227 231 239 226 219 298 297 317
143 143 149 152 155 153 156 160 152 153 156 166 169 179 188 184 179 176 178 178 173 174 183 150 145 171 178 176 182 189 200 204 206 206 205 203 195 201 200 201 206 210 211 212 212 212 213 215 216 222 229 236 241 245 245 246 250 241 224 212 211 213 217 222 219 214 227 226 237 240 249 252 258 253 256 259 235 193 211 204 179 237 246 255 271
141 145 149 151 155 154 152 150 141 156 164 168 173 177 186 187 179 177 181 181 175 175 173 164 155 168 177 181 185 193 197 200 206 207 209 203 193 187 192 205 209 209 210 216 216 214 212 217 219 218 222 226 228 231 234 234 239 241 232 218 211 221 244 269 220 217 229 231 223 233 240 243 255 270 257 209 164 158 150 247 256 266 284 341 354
143 145 148 151 146 149 150 147 147 150 157 164 172 176 182 181 181 181 180 178 174 170 171 171 169 171 177 189 190 190 191 201 209 212 210 204 197 189 193 204 209 208 213 212 214 212 212 214 218 219 221 224 223 226 228 230 230 243 235 109 90 109 110 84 83 70 39 318 211 186 187 189 187 177 165 159 206 196 292 279 285 59 85 74 47
145 145 146 151 152 154 153 158 159 162 167 166 172 178 179 181 185 185 182 182 181 178 175 180 173 170 181 190 185 186 191 197 207 214 215 212 199 196 200 204 204 208 204 209 208 211 215 216 216 213 215 218 216 223 228 234 235 214 134 96 91 84 76 72 75 50 9 42 78 109 110 112 114 114 122 127 168 169 130 111 104 89 62 52 37
149 146 149 148 155 162 160 157 162 165 162 164 175 185 183 187 185 187 189 191 191 191 191 187 188 184 182 185 190 191 188 198 208 214 216 212 211 207 199 197 197 197 196 200 204 205 208 206 206 212 222 226 227 227 229 222 179 121 114 120 105 93 89 82 73 52 47 28 40 112 143 133 141 169 191 196 167 101 92 83 75 73 63 46 33
148 149 155 158 158 157 151 151 159 164 159 167 175 180 182 187 190 189 193 196 199 199 198 196 197 193 195 192 193 191 195 199 205 207 210 211 208 207 199 192 190 188 192 201 201 199 203 204 208 212 220 219 207 179 154 121 107 117 116 110 98 92 89 85 79 37 18 9 52 73 114 130 145 56 47 68 85 84 92 91 73 65 56 61 63